#timestamp,LO_Frequency,Hit,StdDev 
1599361215.3,286046999.1,N
1599361235.2,286046999.4,N
1599361255.0,286046998.4,N
1599361255.9,286046998.4,N
1599361275.8,286046999.0,N
1599361295.6,286046997.0,N
1599361315.4,286046996.8,N
1599361335.3,286046998.6,N
1599361355.1,286046999.0,N
1599361375.8,286046999.4,N
1599361395.7,286046999.3,N
1599361415.5,286046999.4,N
1599361435.4,286047000.8,N
1599361455.2,286046998.4,N
1599361475.0,286046998.1,N
1599361475.9,286046998.1,N
1599361495.8,286047000.7,N
1599361515.6,286047001.0,N
1599361535.4,286046998.5,N
1599361555.3,286046998.7,N
1599361575.1,286046999.1,N
1599361595.9,286046998.3,N
1599361615.7,286046998.9,N
1599361635.5,286046998.1,N
1599361655.4,286046998.2,N
1599361675.2,286046999.0,N
1599361695.1,286046997.0,Y
1599361696.0,286046997.0,P
1599361715.8,286046996.6,P
1599361735.6,286046997.4,N
1599361755.5,286046997.5,N
1599361775.3,286046997.6,Y
1599361795.2,286047001.0,P
1599361815.9,286046997.4,N
1599361835.7,286046999.4,N
1599361855.6,286046999.0,N
1599361875.4,286047001.2,N
1599361895.2,286046999.5,N
1599361915.1,286046997.4,N
1599361916.0,286046997.4,N
1599361935.8,286046998.4,N
1599361955.7,286046998.2,N
1599361975.5,286046998.1,N
1599361995.3,286046998.1,N
1599362015.2,286046999.3,N
1599362035.0,286046999.3,N
1599362035.9,286046999.3,N
1599362055.8,286046996.9,N
1599362075.6,286047000.8,N
1599362095.4,286047002.8,N
1599362115.3,286047002.3,N
1599362135.1,286047001.8,N
1599362155.8,286047000.3,N
1599362175.7,286047002.2,N
1599362195.5,286046999.7,N
1599362215.4,286047000.2,N
1599362235.2,286046999.7,N
1599362255.0,286047001.0,N
1599362255.9,286047001.0,N
1599362275.8,286047000.3,N
1599362295.6,286047000.5,N
1599362315.4,286047001.0,N
1599362335.3,286046998.8,N
1599362355.1,286046996.6,N
1599362375.9,286047001.1,N
1599362395.7,286046996.7,N
1599362415.5,286046998.2,N
1599362435.4,286047000.1,N
1599362455.2,286047002.2,N
1599362475.0,286047001.5,N
1599362475.9,286047001.5,N
1599362495.8,286046999.8,N
1599362515.6,286046999.9,N
1599362535.5,286047000.2,N
1599362555.3,286047000.6,N
1599362575.1,286047000.8,N
1599362595.9,286046998.2,N
1599362615.7,286047000.8,N
1599362635.5,286046998.8,N
1599362655.4,286047000.7,N
1599362675.2,286047002.8,N
1599362695.1,286047002.7,N
1599362696.0,286047002.7,N
1599362715.8,286046998.1,N
1599362735.6,286046999.2,N
1599362755.5,286046999.6,N
1599362775.3,286046999.0,N
1599362795.1,286046998.5,N
1599362815.9,286046997.4,N
1599362835.7,286046996.5,N
1599362855.6,286047001.0,N
1599362875.4,286047000.9,N
1599362895.2,286046997.7,N
1599362915.1,286046998.9,N
1599362916.0,286046998.9,N
1599362935.8,286046996.6,N
1599362955.7,286046999.4,N
1599362975.5,286046998.9,N
1599362995.3,286046999.4,N
1599363015.2,286046996.7,N
1599363035.0,286046997.8,N
1599363035.9,286046997.8,N
1599363055.7,286046998.4,N
1599363075.6,286047001.2,N
1599363095.4,286046996.8,N
1599363115.3,286047001.1,N
1599363135.1,286046998.6,N
1599363136.0,286046998.6,N
1599363155.8,286046998.2,N
1599363175.7,286046997.2,N
1599363195.5,286046993.4,Y
1599363215.4,286046993.4,P
1599363235.2,286046995.1,N
1599363255.0,286046997.4,N
1599363255.9,286046997.4,N
1599363275.8,286046997.0,N
1599363295.6,286046996.6,N
1599363315.4,286046999.5,N
1599363335.3,286046999.0,N
1599363355.1,286046997.9,N
1599363375.9,286046995.5,N
1599363395.7,286046995.6,N
1599363415.5,286046998.0,N
1599363435.4,286046998.1,N
1599363455.2,286047000.4,N
1599363475.0,286047000.6,N
1599363475.9,286047000.6,N
1599363495.8,286047002.7,N
1599363515.6,286047002.7,N
1599363535.5,286047000.2,N
1599363555.3,286046996.6,N
1599363575.1,286046998.6,N
1599363595.9,286047000.3,N
1599363615.7,286047000.1,N
1599363635.6,286046999.7,N
1599363655.4,286047002.3,N
1599363675.2,286047000.2,N
1599363695.1,286047001.0,N
1599363696.0,286047001.0,N
1599363715.8,286046999.9,N
1599363735.6,286046998.9,N
1599363755.5,286046997.0,N
1599363775.3,286047000.6,N
1599363795.2,286047001.9,N
1599363815.9,286047002.3,N
1599363835.7,286047002.3,N
1599363855.6,286047002.8,N
1599363875.4,286047004.2,N
1599363895.3,286047002.4,N
1599363915.1,286047000.7,N
1599363916.0,286047000.7,N
1599363935.8,286047002.4,N
1599363955.7,286046998.8,N
1599363975.5,286046999.3,N
1599363995.3,286046998.3,N
1599364015.2,286047000.4,N
1599364035.0,286046999.7,N
1599364035.9,286046999.7,N
1599364055.8,286047002.2,N
1599364075.6,286047002.1,N
1599364095.4,286047004.3,N
1599364115.3,286047003.6,N
1599364135.1,286047004.3,N
1599364155.9,286047004.2,N
1599364175.7,286047004.1,N
1599364195.5,286047003.7,N
1599364215.4,286047000.1,N
1599364265.2,286047000.1,E
1599364275.3,286047002.1,N
1599364295.1,286047000.1,P
1599364315.9,286046998.7,N
1599364335.7,286046999.6,N
1599364355.5,286047000.6,N
1599364375.4,286047002.5,N
1599364395.2,286046998.6,N
1599364415.0,286047000.5,N
1599364416.0,286047000.5,N
1599364435.8,286047001.6,N
1599364455.6,286047001.8,N
1599364475.5,286047003.0,N
1599364495.3,286047003.1,N
1599364515.1,286047004.2,N
1599364535.9,286047002.6,N
1599364555.7,286047004.2,N
1599364575.6,286047003.2,N
1599364595.4,286047003.1,N
1599364615.2,286047004.4,N
1599364635.1,286047001.3,N
1599364636.0,286047001.3,N
1599364655.8,286047004.4,N
1599364675.6,286047004.1,N
1599364695.5,286047005.9,Y
1599364715.3,286046999.9,P
1599364735.2,286047001.7,N
1599364755.9,286047005.8,P
1599364775.7,286047005.0,N
1599364795.6,286047003.8,N
